This is the latest recevied weather packets stored in our database for station/object WP4PW. If no packets are shown the sender has not sent any weather packets the latest 10 day(s).
| Time | Temp. | Humidity | Pressure | Rain* | Wind** | Luminosity | Snow |
|---|---|---|---|---|---|---|---|
| 1778194007 | 27.78° C | 82% | 1019.8 hPa | 0 mm | - | 4 W/m² | - |
| 1778193704 | 27.78° C | 82% | 1019.9 hPa | 0 mm | - | 6 W/m² | - |
| 1778193400 | 27.78° C | 82% | 1019.8 hPa | 0 mm | - | 10 W/m² | - |
| 1778193097 | 27.78° C | 81% | 1019.9 hPa | 0 mm | - | 14 W/m² | - |
| 1778192794 | 27.78° C | 82% | 1019.8 hPa | 0 mm | - | 19 W/m² | - |
| 1778192490 | 27.78° C | 82% | 1019.6 hPa | 0 mm | - | 20 W/m² | - |
| 1778192186 | 27.78° C | 82% | 1019.8 hPa | 0 mm | - | 33 W/m² | - |
| 1778191883 | 27.78° C | 83% | 1019.7 hPa | 0 mm | - | 37 W/m² | - |
| 1778191580 | 27.78° C | 82% | 1019.7 hPa | 0 mm | - | 34 W/m² | - |
| 1778191278 | 28.33° C | 82% | 1019.6 hPa | 0 mm | - | 36 W/m² | - |
| 1778190974 | 28.33° C | 83% | 1019.5 hPa | 0 mm | - | 69 W/m² | - |
| 1778190672 | 28.33° C | 83% | 1019.5 hPa | 0 mm | - | 58 W/m² | - |
| 1778190369 | 28.33° C | 83% | 1019.5 hPa | 0 mm | - | 67 W/m² | - |
| 1778190064 | 28.33° C | 83% | 1019.3 hPa | 0 mm | - | 68 W/m² | - |
| 1778189761 | 28.33° C | 82% | 1019.5 hPa | 0 mm | - | 66 W/m² | - |
| 1778189458 | 28.33° C | 82% | 1019.3 hPa | 0 mm | - | 89 W/m² | - |
| 1778189154 | 28.89° C | 81% | 1019.3 hPa | 0 mm | - | 105 W/m² | - |
| 1778188851 | 28.33° C | 83% | 1019.2 hPa | 0 mm | - | 95 W/m² | - |
| 1778188548 | 28.33° C | 83% | 1019.4 hPa | 0 mm | - | 80 W/m² | - |
| 1778188244 | 28.33° C | 83% | 1019.4 hPa | 0 mm | - | 93 W/m² | - |
| 1778187941 | 28.89° C | 82% | 1019.4 hPa | 0 mm | - | 80 W/m² | - |
| 1778187638 | 28.33° C | 82% | 1019.3 hPa | 0 mm | - | 108 W/m² | - |
| 1778187335 | 28.33° C | 82% | 1019 hPa | 0 mm | - | 87 W/m² | - |
| 1778187031 | 28.33° C | 83% | 1019.3 hPa | 0 mm | - | 96 W/m² | - |
| 1778186727 | 28.33° C | 82% | 1019.3 hPa | 0 mm | - | 85 W/m² | - |
* Rain latest hour (hover to see other rain measurements)
** Current wind speed in m/s (hover to see current wind gust speed)